Home > Time Zones > World Clock > Weather > Fiji > Nadi > Past weeks

Flag for Fiji Weather past 2 weeks in Nadi, Fiji

Now
77 °F

Passing clouds.


Feels Like: 79 °F
Forecast: 74 / 83 °F
Wind: 7 mph from Southeast

Location: Nandi

Current Time: Sep 1, 2014 at 8:57:11 PM

Latest Report: Sep 1, 2014 at 8:00 PM


Visibility: N/A

Pressure: 29.95 "Hg

Humidity: 74%

Dew point: 68 °F

Location of NadiLocation

Historic Weather in Nadi — Graph

°F

Nadi temperature yesterday

Maximum temperature yesterday: 84 °F (at 1:00 PM)
Minimum temperature yesterday: 70 °F (at 5:00 AM)
Average temperature yesterday: 77 °F

Past Weeks' High & Low Weather Summary

 TemperatureHumidityPressure
High88 °F (Aug 22, 1:00 PM)100% (Aug 20, 4:00 AM)30.07 "Hg (Aug 20, 4:00 AM)
Low63 °F (Aug 23, 6:00 AM)43% (Aug 23, 1:00 PM)29.86 "Hg (Aug 30, 4:00 PM)
Average74 °F72%29.98 "Hg
* Reported Aug 17 7:00 PM — Sep 1 7:00 PM, Nadi, Weather by CustomWeather, © 2014

Note: Actual official high and low records may vary slightly from our data, if they occured in-between our weather recording intervals... More about our weather records

Advertising

Nadi weather history for previous 24 hours

 ConditionsComfort  
Time TempWeatherWind HumidityBarometerVisibility
7:00 PM
Sep 1
79 °FPassing clouds.9 mph70%29.92 "HgN/A
6:00 PM81 °FPartly sunny.9 mph58%29.92 "HgN/A
5:00 PM82 °FPartly sunny.9 mph62%29.89 "HgN/A
4:00 PM82 °FPartly sunny.13 mph62%29.89 "HgN/A
3:00 PM82 °FPartly sunny.13 mph66%29.89 "HgN/A
2:00 PM82 °FScattered clouds.12 mph58%29.92 "HgN/A
1:00 PM82 °FPassing clouds.15 mph62%29.95 "HgN/A
12:00 PM84 °FPassing clouds.12 mph55%29.95 "HgN/A
11:00 AM86 °FScattered clouds.5 mph52%29.98 "HgN/A
10:00 AM82 °FScattered clouds.9 mph55%30.01 "HgN/A
9:00 AM79 °FPassing clouds.No wind65%30.04 "HgN/A
8:00 AM73 °FPassing clouds.5 mph78%30.01 "HgN/A
7:00 AM66 °FPassing clouds.2 mph94%30.01 "HgN/A
6:00 AM68 °FPassing clouds.3 mph88%29.98 "HgN/A
5:00 AM70 °FPassing clouds.2 mph83%29.95 "HgN/A
4:00 AM70 °FPassing clouds.5 mph83%29.95 "HgN/A
3:00 AM70 °FPassing clouds.5 mph88%29.95 "HgN/A
2:00 AM70 °FPassing clouds.5 mph88%29.95 "HgN/A
12:00 AM73 °FPassing clouds.3 mph89%29.98 "HgN/A
11:00 PM
Aug 31
75 °FPassing clouds.3 mph83%29.98 "HgN/A
10:00 PM75 °FPassing clouds.3 mph83%29.98 "HgN/A
9:00 PM75 °FPassing clouds.3 mph83%29.98 "HgN/A
8:00 PM77 °FPassing clouds.3 mph74%29.95 "HgN/A
Weather by CustomWeather, © 2014

See weather overviewHow to use our weather pages